Location: Kellogg
(38.0159°N, 90.0546°W)
Time: 07:58:00
(UTC+00:00)

S-56A Canister/Altair - Pass Details

Date: 14 September 2024
Orbit: 636 x 2487 km, 38.9° (Epoch: 09 October)

Event Time Altitude Azimuth Distance (km) Brightness Sun altitude
Rises 08:37:53 0° 278° (W) 5,200 - -34.3°
Reaches altitude 10° 08:42:30 10° 262° (W) 4,503 - -33.6°
Maximum altitude 08:50:17 19° 224° (SW) 4,186 - -32.4°
Drops below altitude 10° 08:59:03 10° 187° (S) 5,108 - -30.9°
Exits shadow 09:01:08 - 181° (S) 5,452 11.6 -30.6°
Sets 09:04:58 0° 171° (S) 6,143 11.9 -30.0°
